Home   Weather   Ottawa   Past weeks

Flag for Canada Past Weather in Ottawa, Ontario, Canada — Yesterday and Last 2 Weeks

Now
36 °F

Passing clouds.


Feels Like: 29 °F
Forecast: N/A
Wind: 9 mph from Southwest

Location: Ottawa Int'L. Ont.

Current Time: Dec 7, 2016 at 5:33:48 pm

Latest Report: Dec 7, 2016 at 5:01 pm


Visibility: 15 mi

Pressure: 29.91 "Hg

Humidity: 75%

Dew Point: 28 °F

Location of OttawaLocation

Past Weather in Ottawa — Graph

°F

Ottawa Temperature Yesterday

Maximum temperature yesterday: 34 °F (at 2:00 pm)
Minimum temperature yesterday: 23 °F (at 8:00 am)
Average temperature yesterday: 29 °F

High & Low Weather Summary for the Past Weeks

 TemperatureHumidityPressure
High45 °F (Dec 1, 2:47 am)100% (Nov 24, 8:00 am)30.35 "Hg (Nov 24, 8:00 am)
Low21 °F (Nov 23, 5:00 am)56% (Dec 3, 4:00 pm)29.31 "Hg (Dec 1, 3:46 am)
Average32 °F87%30.01 "Hg
* Reported Nov 22 4:00 pm — Dec 7 4:00 pm, Ottawa, Weather by CustomWeather, © 2016

Note: Actual official high and low records may vary slightly from our data, if they occured in-between our weather recording intervals... More about our weather records

Advertising

Ottawa Weather History for the Previous 24 Hours

Scroll right to see more
 ConditionsComfort  
Time TempWeatherWind HumidityBarometerVisibility
4:00 pm
Wed, Dec 7
37 °FPartly sunny.10 mph70%29.90 "Hg15 mi
3:00 pm37 °FPartly sunny.13 mph70%29.88 "Hg15 mi
2:00 pm39 °FScattered clouds.14 mph70%29.85 "Hg15 mi
1:00 pm39 °FScattered clouds.18 mph65%29.85 "Hg15 mi
12:00 pm39 °FPartly sunny.14 mph75%29.85 "Hg15 mi
11:00 am34 °FPassing clouds.3 mph93%29.84 "Hg10 mi
10:45 am32 °FBroken clouds.3 mph100%29.84 "Hg10 mi
10:00 am32 °FLight snow. Low clouds.No wind93%29.84 "Hg2 mi
9:00 am30 °FLight snow. Low clouds.5 mph100%29.83 "Hg2 mi
8:00 am30 °FLight snow. Low clouds.5 mph93%29.83 "Hg1 mi
7:00 am28 °FLight snow. Low clouds.9 mph100%29.83 "Hg4 mi
6:00 am28 °FLight snow. Low clouds.10 mph93%29.83 "Hg4 mi
5:00 am28 °FLight snow. Low clouds.10 mph93%29.84 "Hg1 mi
4:49 am28 °FLight snow. Low clouds.9 mph93%29.84 "Hg1 mi
4:00 am28 °FLight snow. Overcast.12 mph93%29.85 "Hg4 mi
3:00 am28 °FOvercast.16 mph86%29.85 "Hg15 mi
2:00 am28 °FMostly cloudy.17 mph86%29.88 "Hg8 mi
1:00 am28 °FLight snow. Overcast.16 mph93%29.89 "Hg2 mi
12:00 am28 °FLight snow. Overcast.15 mph86%29.91 "Hg6 mi
11:00 pm
Tue, Dec 6
28 °FOvercast.13 mph86%29.94 "Hg15 mi
10:00 pm28 °FOvercast.16 mph86%29.95 "Hg15 mi
9:00 pm28 °FPassing clouds.16 mph86%29.97 "Hg15 mi
7:00 pm30 °FOvercast.15 mph80%30.00 "Hg15 mi
6:00 pm30 °FPartly cloudy.12 mph86%30.01 "Hg15 mi
5:00 pm30 °FPassing clouds.15 mph86%30.00 "Hg15 mi
Weather by CustomWeather, © 2016

See weather overviewHow to use our weather pages